Погода в Потоке

Украина / Киевская область     49°45′44″N   31°03′15″E
темп.,
°C
ветер,
м/с
пор.,
м/с
влажн.,
%
обл.,
%
осадки,
мм/ч
давл.,
гПа
погр.,
м
23 октября, сб
сб2300:00+12зюз385132 0.0 1014199
03:00+10зюз5136614 0.0 1014329
06:00+8зюз4127542 0.0 1014319
09:00+9з611665 0.0 1015613
12:00+12з811435 0.0 10171480
15:00+13зсз710375 0.0 10172110
18:00+9зсз47435 0.0 1018133
21:00+6зсз411545 0.0 1021257
24 октября, вс
вс2400:00+4з386875 0.0 1022165
03:00+3з410755 0.0 1022240
06:00+2з411825 0.0 1023276
09:00+4з5127835 0.0 1024448
12:00+8сз785594 0.0 10251490
15:00+7ссз796089 0.1 10261252
18:00+5сз61063100 0.0 10281396
21:00+6ссз6948100 0.0 10291202
25 октября, пн
пн2500:00+2сз486623 0.0 1030170
03:00+1сз367730 0.0 1031127
06:000ссз36855 0.0 1032114
09:00+1с35744 0.0 1034205
12:00+5ссв33480 0.0 1034801
15:00+7с22380 0.0 1033958
18:00+4в22475 0.0 103310
21:00+2юв22575 0.0 103422
26 октября, вт
вт2600:00+1ю33611 0.0 103440
03:000ю34630 0.0 103455
06:000ю35665 0.0 103370
09:00+2ю38605 0.0 1032196
12:00+8ю57375 0.0 1031694
15:00+10ююз57305 0.0 1029959
18:00+6ю47410 0.0 102893
21:00+4ю49480 0.0 1028158
27 октября, ср
ср2700:00+3ю4105196 0.0 1028176
03:00+2ю41055100 0.0 1027179
06:00+2ю31062100 0.0 1026188
09:00+3ююз4961100 0.0 1026243
12:00+8юз5760100 0.0 1025537
15:00+10юз5758100 0.0 1023969
18:00+7зюз33745 0.0 102328
21:00+5з3473100 0.0 102442